Location: Big Meadows
(38.5260°N, 78.4400°W)
Time: 21:24:48
(UTC-04:00)

Daily predictions for brighter satellites

Satellite Brightness Start Highest point End
(mag) Time Altitude Azimuth Time Altitude Azimuth Time Altitude Azimuth
Meteor 1-4 Rocket 2.9 20:04:33 10° SSE 20:07:48 39° E 20:11:04 10° NNE
Helios 1B rocket 3.8 20:06:02 10° NE 20:08:55 18° E 20:11:47 10° SE
In-Cosmos 22 4.0 20:06:05 10° N 20:11:24 71° E 20:16:39 10° SSE
Spot 2 Rocket 3.8 20:08:30 10° SE 20:13:22 47° ENE 20:18:16 10° N
Lacrosse 4 Rocket 4.4 20:11:58 10° W 20:14:04 14° NW 20:16:10 10° NNW
Lacrosse 5 rocket 2.8 20:12:44 10° NNW 20:15:49 21° NE 20:18:25 12° E
Cosmos 1544 3.0 20:16:54 10° S 20:20:32 79° E 20:24:13 10° N
Cosmos 2344 4.3 20:13:06 10° SW 20:20:38 60° NW 20:29:07 10° NNE
Cosmos 1076 Rocket 3.7 20:16:39 10° N 20:20:46 46° E 20:24:51 10° SSE
Cosmos 1867 3.5 20:16:41 10° SSW 20:22:08 83° ESE 20:27:37 10° NNE
H-2A R/B (2) 3.2 20:20:33 10° SW 20:22:58 21° S 20:26:56 11° SE
FENGYUN 3A 3.7 20:18:09 10° SSE 20:23:34 89° W 20:29:00 10° NNW
CZ-2D R/B 3.7 20:19:57 10° SE 20:23:36 41° ENE 20:27:17 10° N
Okean 3 Rocket 3.5 20:20:37 10° N 20:25:02 86° ENE 20:29:28 10° S
Cosmos 1805 3.3 20:23:03 10° S 20:26:57 85° W 20:30:52 10° N
Helios 1A 3.8 20:26:17 12° SE 20:29:33 32° ENE 20:33:17 10° N
Cosmos 1833 Rocket 2.9 20:24:04 10° NNW 20:29:34 51° ENE 20:34:48 11° SE
ALOS 2.6 20:24:55 10° S 20:29:34 71° WSW 20:34:15 10° NNW
Envisat 4.0 20:28:31 15° ESE 20:31:41 26° ENE 20:35:52 10° NNE
Meteor 1-21 Rocket 4.3 20:26:53 10° N 20:32:41 63° E 20:38:32 10° SSE
Abrixas 2.7 20:31:14 10° WNW 20:34:02 56° SW 20:35:43 20° SE
Tiangong 1 3.7 20:36:45 10° WSW 20:37:55 12° SW 20:39:04 10° SSW
Cosmos 2278 Rocket 3.8 20:32:51 10° SW 20:38:06 38° WNW 20:43:23 10° N
ATLAS 5 CENTAUR R/B 1.7 20:35:54 10° SSW 20:40:32 80° ESE 20:45:34 10° NE
SeaSat 1 2.6 20:37:03 10° SSE 20:41:58 79° WSW 20:46:55 10° NNW
Cosmos 1125 Rocket 3.8 20:36:52 10° SSW 20:42:02 71° WNW 20:47:15 10° NNE
Cosmos 1733 3.4 20:39:43 10° SSE 20:43:26 47° E 20:47:10 10° NNE
ERS-1 Rocket 4.4 20:43:16 18° E 20:44:16 19° ENE 20:47:43 10° NNE
Cosmos 1470 2.8 20:41:10 10° S 20:45:02 53° E 20:48:55 10° NNE
Geosat 4.0 20:40:53 10° NNE 20:45:52 60° ESE 20:50:49 10° SSW
Cosmos 1048 Rocket 3.9 20:41:11 10° NNW 20:46:20 84° ENE 20:51:27 10° SSE
GPS 2-05 Rocket1 3.2 20:43:26 10° WSW 20:46:54 52° S 20:48:14 32° ESE
Cosmos 1766 Rocket 3.5 20:43:01 10° N 20:47:31 69° E 20:51:57 10° SSE
Cosmos-2242 2.9 20:43:31 10° S 20:47:42 63° E 20:51:55 10° NNE
OAO 2 Rocket 4.4 20:45:09 10° SW 20:49:36 29° SSE 20:51:18 24° SE
GP-B 3.0 20:46:42 10° SSE 20:51:06 67° E 20:55:31 10° N
Cosmos 2016 Rocket 4.3 20:49:32 10° SSE 20:55:20 43° E 21:01:05 10° NNE
Cosmos 2297 4.3 20:50:38 10° SW 20:56:15 59° WNW 21:01:56 10° NNE
USA 186 1.5 20:58:06 50° NNW 20:58:06 50° NNW 20:59:50 10° NNW
H-2A R/B 3.9 20:54:39 10° S 20:58:23 45° W 21:02:11 10° NNW
BREEZE-M DEB (TANK) 4.2 20:55:45 10° W 20:58:43 46° NNW 21:06:52 10° ENE
Resurs 01 Rocket 2.5 20:56:14 10° S 21:00:30 50° W 21:04:50 10° NNW
CZ-4B DEB 2.9 21:01:09 47° ENE 21:01:09 47° ENE 21:03:59 10° N
Cosmos 1340 Rocket 2.8 20:57:02 10° N 21:01:01 59° E 21:02:28 35° SE
Cosmos 2082 Rocket 2.5 21:04:10 10° NNW 21:09:48 66° WSW 21:14:42 14° S
ISS -2.5 21:08:02 10° WSW 21:11:06 38° NNW 21:12:44 22° NNE
Cosmos 2100 Rocket 4.0 21:07:48 10° S 21:14:07 86° W 21:20:33 10° N
Meteor 1-29 2.9 21:11:01 10° NNE 21:14:30 87° WNW 21:16:41 21° SSW
SAR-Lupe-4 4.2 21:16:30 26° S 21:18:16 55° W 21:21:48 10° NNW
Cosmos 1743 Rocket 3.5 21:14:13 10° N 21:18:40 70° E 21:19:40 51° SE
Cosmos 1500 Rocket 3.7 21:15:26 10° N 21:19:25 49° ENE 21:19:25 49° ENE
Meteor 1-16 Rocket 4.3 21:14:34 10° S 21:20:19 62° E 21:26:10 10° NNE
Meteor 1-11 4.4 21:15:44 10° N 21:21:05 46° ENE 21:21:49 43° E
CZ-3B DEB 4.3 21:15:11 10° W 21:22:16 24° NW 21:26:20 10° NNE
YAOGAN 6 4.3 21:24:19 24° NNE 21:24:19 24° NNE 21:26:09 10° N
SL-14 R/B 4.0 21:20:01 10° N 21:22:48 39° NE 21:22:48 39° NE
Cosmos 1271 Rocket 3.9 21:20:33 10° SSW 21:24:23 45° WNW 21:28:16 10° N
COSMOS 2487 4.4 21:21:26 10° NW 21:24:32 28° W 21:26:44 16° SSW
Cosmos 2058 4.5 21:23:20 10° NNE 21:25:21 23° NNE 21:25:21 23° NNE
Cosmos 2251 Rocket 3.6 21:22:41 10° N 21:27:57 59° ENE 21:28:42 54° ESE
Tsikada Rocket 4.2 21:22:26 10° N 21:28:24 46° ENE 21:29:09 44° E
H-2A R/B 4.5 21:23:40 10° WSW 21:30:19 56° SSE 23:08:24 10° ESE
H-2A R/B 4.5 21:23:40 10° WSW 21:30:20 56° SSE 23:08:24 10° ESE
Cosmos 1328 4.0 21:27:02 10° N 21:30:24 60° NNE 21:30:24 60° NNE
USA 215 3.1 21:29:18 10° NE 21:35:49 69° SE 21:42:19 10° SW
Cosmos 1802 Rocket 4.1 21:31:52 10° SSW 21:37:57 71° W 21:44:08 10° N
SPOT 5 4.1 21:42:54 33° NE 21:42:54 33° NE 21:46:38 10° N
Meteor 2-1 Rocket 4.4 21:43:32 51° ENE 21:43:32 51° ENE 21:48:17 10° NNE
Cosmos 1939 Rocket 3.1 21:42:56 66° WSW 21:43:01 66° W 21:47:09 10° NNW
Cosmos 2151 3.8 21:39:06 10° N 21:42:01 41° NNE 21:42:01 41° NNE
Helios 1B rocket 4.2 21:40:36 10° N 21:44:17 32° WNW 21:47:56 10° SW
Cosmos 1842 Rocket 4.2 21:50:28 42° SW 21:51:33 55° W 21:55:53 10° N
Lacrosse 5 rocket 2.7 21:51:33 10° NW 21:54:09 34° W 21:54:09 34° W
Cosmos 1816 Rocket 4.4 21:51:25 10° N 21:57:23 65° ENE 21:57:23 65° ENE
Cosmos 2369 Rocket 3.6 22:01:47 26° NNE 22:01:47 26° NNE 22:04:05 10° NNE
Cosmos 494 Rocket 4.0 21:53:55 10° NNW 21:59:00 70° WSW 21:59:01 70° WSW
Gblst 52 Del rocket 4.3 22:01:22 10° WSW 22:07:18 73° NW 22:07:37 71° N
USA 267 4.3 22:06:11 29° NE 22:07:24 31° NNE 22:12:58 10° NNW
Cosmos 2233 Rocket 4.3 22:10:13 54° NNE 22:10:13 54° NNE 22:15:00 10° NNE
Envisat 4.4 22:08:43 26° SW 22:10:32 34° W 22:15:08 10° NNW
ERS-1 Rocket 3.8 22:23:15 46° WNW 22:23:15 46° WNW 22:27:31 10° NNW
H-2A R/B 3.7 22:31:01 27° N 22:31:01 27° N 22:33:26 10° N
CZ-3 Stage 3 3.8 22:21:11 10° W 22:38:06 40° SW 22:38:06 40° SW
USA 215 4.4 23:12:38 10° NE 23:18:32 38° NNW 23:24:26 10° W
